Погода в Жуковке

Погода в Жуковке : погода сейчас, прогноз погоды и архив. Всё, что Вы хотите узнать о погоде в Жуковке!

Хотите узнать прогноз погоды в Жуковке? Тогда Вам сюда: Погода в Жуковке

Поиск расширенной информации на нашем сайте:

Другие новости

Новости СМИ2

Главная страница сайта

Новости сайта

03.07.2017

Напоминаем, что на нашем специализированном сайте Метеоцентр.Азия вы можете получить высокодетализированные автоматические прогнозы погоды по пунктам России, СНГ и мира в авиационном формате (включающие направление и скорость ветра, видимость, явления погоды, количество и форму облачности, нижнюю и верхнюю границу облачности).


Погода в Жуковке - сегодня

Время (UTC), дата Ветер
(°,м/с) 
Видим.   Явления Облачность Т
(°С)
Тd
(°С)
f(%) Тe
(°С)
Pmin
(гПа)
dP
(гПа)
Po
(мм)
O2
(г/м3)
Тmin Tmax R s Состояние
почвы
03 15.08.17 030 (СВ) 9000 м  дымка  8/0 средняя 
[Ac trans]
+17.2 +15.1 87 +27  1021.5  0.8  750  281  +16.6         
06 15.08.17 040 (СВ) 14000 м    8/0 средняя, верхняя 
[Ac trans|Cc]
+20.1 +14.5 70 +28  1022.5  1.2  751  279  +16.6         
09 15.08.17 050 (СВ) 15000 м    8/6 600 м кучево-дожд., верхняя 
[Cb cap|Ci fib]
+22 +14.6 63 +30  1023.1  0.7  752  277           
12 15.08.17 060 (СВ) 20000 м    9/6 600 м кучево-дожд., средняя 
[Cb cap|Ac trans]
+23 +12.7 52 +28  1023.3  0.3  752  277           
15 15.08.17 080 (В) 20000 м    8/6 600 м кучево-дожд., верхняя 
[Cb cap|Ci fib]
+23.2 +13 53 +29  1023.5  0.2  752  277           
21 15.08.17 040 (СВ) 11000 м    1/0 средняя 
[Ac trans]
+15.7 +13.4 86 +22  1025.2  0.6  753  284           
00 16.08.17 030 (СВ) 11000 м    ясно 
+14 +11.8 87 +18  1025.4  0.1  753  286           
03 16.08.17 020 (С) 9000 м  дымка  8/3 600 м кучево-дожд., средняя 
[Cb cap|Ac trans]
+13 +11.5 91 +16  1025.7  0.2  753  288  +12.6         
06 16.08.17 080 (В) 14000 м    3/0 средняя 
[Ac trans]
+18.7 +13 69 +25  1025.5  0.2  753  282  +12.6         
09 16.08.17 110 (В) 20000 м    3/0 средняя 
[Ac trans]
+24.1 +13.5 52 +30  1024.9  -0.2  753  276           
12 16.08.17 080 (В) 20000 м    3/3 1000 м 
[Cu med, cong]
+25.3 +9 36 +25  1024  -0.7  753  276           
15 16.08.17 090 (В) 20000 м    3/3 1000 м 
[Cu med, cong]
+24.6 +10.7 42 +27  1033.4  -0.7  752  276           
18 16.08.17 080 (В) 12000 м    ясно 
+17.8 +13.6 76 +25  1024.4  0.5  753  282    +25.9       
21 16.08.17 090 (В) 12000 м    ясно 
+17.3 +11.8 70 +22  1024.6  0.2  753  283           
00 17.08.17 010 (С) 7000 м  дымка  3/0 средняя 
[Ac trans]
+12.5 +11.5 94 +16  1024.6  -0.4  752  288           
03 17.08.17 010 (С) 5000 м  дымка  8/0 средняя 
[Ac trans]
+12 +11 94 +14  1024.4  -0.2  752  288  +11.8         
06 17.08.17 120 (ЮВ) 11000 м    3/0 верхняя 
[Ci fib]
+20.8 +16.5 76 +32  1023.6  -0.1  752  278  +11.8         
09 17.08.17 100 (В) 15000 м    3/3 1000 м верхняя 
[Cu med, cong|Ci fib]
+25.8 +16.8 58 +38  1023.1  -0.2  752  273           
12 17.08.17 090 (В) 20000 м    4/4 1000 м 
[Cu med, cong]
+26.4 +14.4 48 +34  1022.3  -0.7  752  273           
15 17.08.17 120 (ЮВ) 20000 м    1/1 1000 м 
[Cu med, cong]
+27.7 +12.3 38 +32  1021.5  -0.8  751  272           
18 17.08.17 130 (ЮВ) 12000 м    3/0 средняя 
[Ac trans]
+20 +15.5 75 +30  1021.7  -0.3  751  279    +28.8       
21 17.08.17 170 (Ю) 12000 м    ясно 
+18.3 +14.3 77 +26  1021.8  751  281           
00 18.08.17 160 (Ю) 11000 м    ясно 
+16.9 +13.7 81 +24  1022.3  0.6  751  282           
03 18.08.17 340 (С) 2600 м  дымка  1/0 верхняя 
[Ci fib]
+12.6 +12 96 +18  1022.9  0.1  751  287  +12.3         
06 18.08.17 140 (ЮВ) 12000 м    4/0 верхняя 
[Cc]
+21.2 +14.8 67 +29  1023  0.7  752  278  +12.3         
Время (UTC), дата Ветер
(°,м/с) 
Видим.   Явления Облачность Т
(°С)
Тd
(°С)
f(%) Тe
(°С)
Pmin
(гПа)
dP
(гПа)
Po
(мм)
O2
(г/м3)
Тmin Tmax R s Состояние
почвы

Для получения пояснительной информации подведите курсор к названию столбца.

ПОГОДА в Жуковке - архив

Всё, что Вы хотите узнать о погоде в Жуковке - удобно и подробно!

Выберите нужную дату (начиная с 1 января 2015* года) и нажмите кнопку "Найти".
Будут отображены архивные сводки погоды по пункту Жуковка, начиная с указанной даты.


Отображать данные в формате CSV (для использования в таблицах Excel)


Внимание! Наш архив погоды предназначен исключительно для личного некоммерческого использования в познавательных целях. Если Вам необходимы официальные справки о состоянии погоды (для производственных, юридических, коммерческих и т.п. целей), обращайтесь в органы Росгидромета.

*Примечание: данная дата относится к архиву по метеостанциям СССР (Россия, СНГ, Балтия).
Архив по метеостанциям Зарубежной Европы и Азии (кроме Китая) хранится 10 дней, по другим регионам земного шара (Китай, Африка, Америка, Австралия, Океания) - 1 день.

Жуковка - район местоположения метеостанции


Название, широта, долгота, высота метеостанции:
Жуковка 53.5°ш. 33.8°д. 177 м над ур. моря [Российская Федерация]

Дополнительная информация

В oтличие oт бoльшинства пoгoдных сайтoв мы публикуем пoдрoбную метеoинфoрмацию в детальнoм прoфессиoнальнoм фoрмате.

Характеристики температуры и влажнoсти вoздуха измеряются на высoте 2 м в тени вдали oт зданий и деревьев.
Скoрoсть ветра измеряется на высoте 10 м (на урoвне рoста челoвека скoрoсть ветра ниже в 1.5-2 раза). Если метеoстанция нахoдится в гoрoде или в лесу, тo скoрoсть ветра занижена на 2-4 м/с пo сравнению с oткрытым местoм. Скoрoсть ветра над акватoриями крупных рек и oзёр, а также на вершинах хoлмoв на 2-5 м/с выше, чем в oбычных услoвиях.
Атмoсфернoе давление в разных тoчках местнoсти мoжет значительнo oтличаться oт давления на метеoстанции, в зависимoсти oт услoвий рельефа (при пoдъёме на 10 м давление пoнижается примернo на 1 мм рт.ст.).